Time,TemperatureF,DewpointF,PressureIn,WindDirection,WindDirectionDegrees,WindSpeedMPH,WindSpeedGustMPH,Humidity,HourlyPrecipIn,Conditions,Clouds,dailyrainin,SolarRadiationWatts/m^2,SoftwareType,DateUTC
2013-02-17 00:00:00,20.8,18.6,29.75,NNE,32,13.8,13.8,91,0.00,-SN,,0.00,0.0,WeatherDisplay:10.37,2013-02-17 09:00:00,
2013-02-17 00:05:00,20.8,18.6,29.74,NE,42,16.1,16.1,91,0.00,-SN,,0.00,0.0,WeatherDisplay:10.37,2013-02-17 09:05:00,
2013-02-17 00:10:00,20.7,18.5,29.74,NE,37,11.5,11.5,91,0.00,-SN,,0.00,0.0,WeatherDisplay:10.37,2013-02-17 09:10:00,
2013-02-17 00:15:00,20.7,18.5,29.74,NE,46,9.2,9.2,91,0.00,-SN,,0.00,0.0,WeatherDisplay:10.37,2013-02-17 09:15:00,
2013-02-17 00:20:00,20.7,18.5,29.74,NE,49,18.4,18.4,91,0.00,-SN,,0.00,0.0,WeatherDisplay:10.37,2013-02-17 09:20:00,
2013-02-17 00:25:00,20.7,18.5,29.73,NE,49,19.6,19.6,91,0.00,-SN,,0.00,0.0,WeatherDisplay:10.37,2013-02-17 09:25:00,
2013-02-17 00:30:00,20.7,18.5,29.73,NE,44,11.5,11.5,91,0.00,-SN,,0.00,0.0,WeatherDisplay:10.37,2013-02-17 09:30:00,
2013-02-17 00:35:00,20.7,18.5,29.73,NE,51,16.1,16.1,91,0.00,-SN,,0.00,0.0,WeatherDisplay:10.37,2013-02-17 09:35:00,
2013-02-17 00:40:00,20.7,18.5,29.73,NE,42,15.0,15.0,91,0.00,-SN,,0.00,0.0,WeatherDisplay:10.37,2013-02-17 09:40:00,
2013-02-17 00:45:00,20.7,18.5,29.73,East,86,18.4,18.4,91,0.00,-SN,,0.00,0.0,WeatherDisplay:10.37,2013-02-17 09:45:00,
2013-02-17 00:50:00,20.7,18.5,29.73,NE,44,18.4,18.4,91,0.00,-SN,,0.00,0.0,WeatherDisplay:10.37,2013-02-17 09:50:00,
2013-02-17 00:55:00,20.7,18.5,29.72,NE,35,16.1,16.1,91,0.00,-SN,,0.00,0.0,WeatherDisplay:10.37,2013-02-17 09:55:00,
2013-02-17 01:00:00,20.7,18.5,29.72,NE,52,15.0,15.0,91,0.00,-SN,,0.00,0.0,WeatherDisplay:10.37,2013-02-17 10:00:00,
2013-02-17 01:05:00,20.7,18.5,29.72,NNE,33,16.1,16.1,91,0.00,-SN,,0.00,0.0,WeatherDisplay:10.37,2013-02-17 10:05:00,
2013-02-17 01:10:00,20.7,18.5,29.72,East,97,15.0,15.0,91,0.00,-SN,,0.00,0.0,WeatherDisplay:10.37,2013-02-17 10:10:00,
2013-02-17 01:15:00,20.8,18.6,29.72,NE,46,13.8,13.8,91,0.00,-SN,,0.00,0.0,WeatherDisplay:10.37,2013-02-17 10:15:00,
2013-02-17 01:20:00,20.8,18.6,29.72,NNE,24,15.0,15.0,91,0.00,-SN,,0.00,0.0,WeatherDisplay:10.37,2013-02-17 10:20:00,
2013-02-17 01:25:00,20.8,18.6,29.71,East,79,16.1,16.1,91,0.00,-SN,,0.00,0.0,WeatherDisplay:10.37,2013-02-17 10:25:00,
2013-02-17 01:30:00,20.8,18.6,29.71,NNE,26,18.4,18.4,91,0.00,-SN,,0.00,0.0,WeatherDisplay:10.37,2013-02-17 10:30:00,
2013-02-17 01:35:00,20.8,18.8,29.71,NNE,28,14.0,14.0,92,0.00,-SN,,0.00,0.0,WeatherDisplay:10.37,2013-02-17 10:35:00,
2013-02-17 01:40:00,20.8,18.6,29.71,ENE,69,17.3,17.3,91,0.00,-SN,,0.00,0.0,WeatherDisplay:10.37,2013-02-17 10:40:00,
2013-02-17 01:45:00,20.8,18.8,29.71,East,80,18.4,18.4,92,0.00,-SN,,0.00,0.0,WeatherDisplay:10.37,2013-02-17 10:45:00,
2013-02-17 01:50:00,20.8,18.8,29.71,ENE,73,12.7,12.7,92,0.00,-SN,,0.00,0.0,WeatherDisplay:10.37,2013-02-17 10:50:00,
2013-02-17 01:55:00,20.8,18.8,29.70,NE,38,12.7,12.7,92,0.00,-SN,,0.00,0.0,WeatherDisplay:10.37,2013-02-17 10:55:00,
2013-02-17 02:00:00,20.9,18.9,29.70,NNE,20,15.0,15.0,92,0.00,-SN,,0.00,0.0,WeatherDisplay:10.37,2013-02-17 11:00:00,
2013-02-17 02:05:00,21.0,19.0,29.69,NE,54,13.8,13.8,92,0.00,-SN,,0.00,0.0,WeatherDisplay:10.37,2013-02-17 11:05:00,
2013-02-17 02:10:00,21.1,19.1,29.69,NE,42,11.5,11.5,92,0.00,-SN,,0.00,0.0,WeatherDisplay:10.37,2013-02-17 11:10:00,
2013-02-17 02:15:00,21.2,19.2,29.69,North,9,18.4,18.4,92,0.00,-SN,,0.00,0.0,WeatherDisplay:10.37,2013-02-17 11:15:00,
2013-02-17 02:20:00,21.3,19.3,29.69,NE,37,12.7,12.7,92,0.00,-SN,,0.00,0.0,WeatherDisplay:10.37,2013-02-17 11:20:00,
2013-02-17 02:25:00,21.3,19.3,29.69,NNE,30,23.0,23.0,92,0.00,-SN,,0.00,0.0,WeatherDisplay:10.37,2013-02-17 11:25:00,
2013-02-17 02:30:00,21.4,19.4,29.68,ENE,61,19.6,19.6,92,0.00,-SN,,0.00,0.0,WeatherDisplay:10.37,2013-02-17 11:30:00,
2013-02-17 02:35:00,21.5,19.5,29.68,NE,38,18.4,18.4,92,0.00,-SN,,0.00,0.0,WeatherDisplay:10.37,2013-02-17 11:35:00,
2013-02-17 02:40:00,21.6,19.6,29.68,NE,49,18.4,18.4,92,0.00,-SN,,0.00,0.0,WeatherDisplay:10.37,2013-02-17 11:40:00,
2013-02-17 02:45:00,21.6,19.6,29.68,NNE,18,13.8,13.8,92,0.00,-SN,,0.00,0.0,WeatherDisplay:10.37,2013-02-17 11:45:00,
2013-02-17 02:50:00,21.6,19.6,29.68,ENE,78,11.5,11.5,92,0.00,-SN,,0.00,0.0,WeatherDisplay:10.37,2013-02-17 11:50:00,
2013-02-17 02:55:00,21.6,19.6,29.68,East,80,9.2,9.2,92,0.00,-SN,,0.00,0.0,WeatherDisplay:10.37,2013-02-17 11:55:00,
2013-02-17 03:00:00,21.5,19.5,29.68,NE,38,11.5,11.5,92,0.00,-SN,,0.00,0.0,WeatherDisplay:10.37,2013-02-17 12:00:00,
2013-02-17 03:05:00,21.5,19.5,29.67,NNE,22,10.4,10.4,92,0.00,-SN,,0.00,0.0,WeatherDisplay:10.37,2013-02-17 12:05:00,
2013-02-17 03:10:00,21.5,19.5,29.67,East,96,17.3,17.3,92,0.00,-SN,,0.00,0.0,WeatherDisplay:10.37,2013-02-17 12:10:00,
2013-02-17 03:15:00,21.6,19.6,29.67,NE,43,11.5,11.5,92,0.00,-SN,,0.00,0.0,WeatherDisplay:10.37,2013-02-17 12:15:00,
2013-02-17 03:20:00,21.7,19.7,29.67,NE,44,11.5,11.5,92,0.00,-SN,,0.00,0.0,WeatherDisplay:10.37,2013-02-17 12:20:00,
2013-02-17 03:25:00,21.7,19.7,29.67,NE,38,11.5,11.5,92,0.00,-SN,,0.00,0.0,WeatherDisplay:10.37,2013-02-17 12:25:00,
2013-02-17 03:30:00,21.8,19.8,29.67,NNE,16,10.0,10.0,92,0.00,-SN,,0.00,0.0,WeatherDisplay:10.37,2013-02-17 12:30:00,
2013-02-17 03:35:00,21.8,19.8,29.66,NE,51,15.0,15.0,92,0.00,-SN,,0.00,0.0,WeatherDisplay:10.37,2013-02-17 12:35:00,
2013-02-17 03:40:00,21.9,19.9,29.66,ENE,76,15.0,15.0,92,0.00,-SN,,0.00,0.0,WeatherDisplay:10.37,2013-02-17 12:40:00,
2013-02-17 03:45:00,21.9,19.9,29.66,ENE,61,12.7,12.7,92,0.00,-SN,,0.00,0.0,WeatherDisplay:10.37,2013-02-17 12:45:00,
2013-02-17 03:50:00,22.0,20.0,29.66,ENE,76,13.8,13.8,92,0.00,-SN,,0.00,0.0,WeatherDisplay:10.37,2013-02-17 12:50:00,
2013-02-17 03:55:00,22.0,20.0,29.65,ENE,57,11.5,11.5,92,0.00,-SN,,0.00,0.0,WeatherDisplay:10.37,2013-02-17 12:55:00,
2013-02-17 04:00:00,22.0,20.0,29.65,NE,47,11.5,11.5,92,0.00,-SN,,0.00,0.0,WeatherDisplay:10.37,2013-02-17 13:00:00,
2013-02-17 04:05:00,22.0,20.0,29.65,NE,38,11.5,11.5,92,0.00,-SN,,0.00,0.0,WeatherDisplay:10.37,2013-02-17 13:05:00,
2013-02-17 04:10:00,22.0,20.0,29.65,ENE,59,12.7,12.7,92,0.00,-SN,,0.00,0.0,WeatherDisplay:10.37,2013-02-17 13:10:00,
2013-02-17 04:15:00,22.1,20.1,29.65,East,85,11.5,11.5,92,0.00,-SN,,0.00,0.0,WeatherDisplay:10.37,2013-02-17 13:15:00,
2013-02-17 04:20:00,22.1,20.1,29.65,NE,50,9.2,9.2,92,0.00,-SN,,0.00,0.0,WeatherDisplay:10.37,2013-02-17 13:20:00,
2013-02-17 04:25:00,22.2,20.2,29.64,NE,47,14.0,14.0,92,0.00,-SN,,0.00,0.0,WeatherDisplay:10.37,2013-02-17 13:25:00,
2013-02-17 04:30:00,22.2,20.2,29.65,ENE,61,11.5,11.5,92,0.00,-SN,,0.00,0.0,WeatherDisplay:10.37,2013-02-17 13:30:00,
2013-02-17 04:35:00,22.3,20.3,29.64,ESE,108,11.5,11.5,92,0.00,-SN,,0.00,0.0,WeatherDisplay:10.37,2013-02-17 13:35:00,
2013-02-17 04:40:00,22.3,20.3,29.65,ENE,63,15.0,15.0,92,0.00,-SN,,0.00,0.0,WeatherDisplay:10.37,2013-02-17 13:40:00,
2013-02-17 04:45:00,22.4,20.4,29.65,ENE,69,16.1,16.1,92,0.00,-SN,,0.00,0.0,WeatherDisplay:10.37,2013-02-17 13:45:00,
2013-02-17 04:50:00,22.4,20.4,29.64,NE,47,10.4,10.4,92,0.00,-SN,,0.00,0.0,WeatherDisplay:10.37,2013-02-17 13:50:00,
2013-02-17 04:55:00,22.5,20.5,29.64,East,90,23.0,23.0,92,0.00,-SN,,0.00,0.0,WeatherDisplay:10.37,2013-02-17 13:55:00,
2013-02-17 05:00:00,22.5,20.5,29.64,NE,48,12.7,12.7,92,0.00,-SN,,0.00,0.0,WeatherDisplay:10.37,2013-02-17 14:00:00,
2013-02-17 05:05:00,22.5,20.5,29.63,NE,44,12.7,12.7,92,0.00,-SN,,0.00,0.0,WeatherDisplay:10.37,2013-02-17 14:05:00,
2013-02-17 05:10:00,22.6,20.6,29.63,East,96,11.5,11.5,92,0.00,-SN,,0.00,0.0,WeatherDisplay:10.37,2013-02-17 14:10:00,
2013-02-17 05:15:00,22.6,20.6,29.63,East,80,16.1,16.1,92,0.00,-SN,,0.00,0.0,WeatherDisplay:10.37,2013-02-17 14:15:00,
2013-02-17 05:20:00,22.7,20.7,29.63,North,9,16.1,16.1,92,0.00,-SN,,0.00,0.0,WeatherDisplay:10.37,2013-02-17 14:20:00,
2013-02-17 05:25:00,22.7,20.7,29.63,East,100,13.8,13.8,92,0.00,-SN,,0.00,0.0,WeatherDisplay:10.37,2013-02-17 14:25:00,
2013-02-17 05:30:00,22.7,20.7,29.63,NE,35,18.4,18.4,92,0.00,-SN,,0.00,0.0,WeatherDisplay:10.37,2013-02-17 14:30:00,
2013-02-17 05:35:00,22.8,20.8,29.63,NE,56,13.8,13.8,92,0.00,-SN,,0.00,0.0,WeatherDisplay:10.37,2013-02-17 14:35:00,
2013-02-17 05:40:00,22.8,20.8,29.62,NE,40,8.1,8.1,92,0.00,-SN,,0.00,0.0,WeatherDisplay:10.37,2013-02-17 14:40:00,
2013-02-17 05:45:00,22.7,20.7,29.62,NE,40,13.8,13.8,92,0.00,-SN,,0.00,0.0,WeatherDisplay:10.37,2013-02-17 14:45:00,
2013-02-17 05:50:00,22.7,20.7,29.62,ENE,63,14.0,14.0,92,0.00,-SN,,0.00,0.0,WeatherDisplay:10.37,2013-02-17 14:50:00,
2013-02-17 05:54:00,22.7,20.7,29.63,East,81,11.0,11.0,92,0.00,-SN,,0.00,0.0,WeatherDisplay:10.37,2013-02-17 14:54:00,
2013-02-17 05:59:00,22.7,20.7,29.62,NE,42,15.0,15.0,92,0.00,-SN,,0.00,0.0,WeatherDisplay:10.37,2013-02-17 14:59:00,
2013-02-17 06:04:00,22.8,20.8,29.62,East,98,15.0,15.0,92,0.00,-SN,,0.00,0.0,WeatherDisplay:10.37,2013-02-17 15:04:00,
2013-02-17 06:09:00,22.8,20.8,29.62,NE,53,16.1,16.1,92,0.00,-SN,,0.00,0.0,WeatherDisplay:10.37,2013-02-17 15:09:00,
2013-02-17 06:14:00,22.8,20.8,29.62,ENE,63,11.5,11.5,92,0.00,-SN,,0.00,0.0,WeatherDisplay:10.37,2013-02-17 15:14:00,
2013-02-17 06:19:00,22.9,20.9,29.62,NE,49,13.8,13.8,92,0.00,-SN,,0.00,0.0,WeatherDisplay:10.37,2013-02-17 15:19:00,
2013-02-17 06:24:00,22.9,20.9,29.61,NNE,26,12.7,12.7,92,0.00,-SN,,0.00,0.0,WeatherDisplay:10.37,2013-02-17 15:24:00,
2013-02-17 06:29:00,22.9,20.9,29.62,ENE,71,12.7,12.7,92,0.00,-SN,,0.00,0.0,WeatherDisplay:10.37,2013-02-17 15:29:00,
2013-02-17 06:34:00,22.9,20.9,29.61,East,92,15.0,15.0,92,0.00,-SN,,0.00,0.0,WeatherDisplay:10.37,2013-02-17 15:34:00,
2013-02-17 06:39:00,23.0,21.0,29.61,NE,43,12.7,12.7,92,0.00,-SN,,0.00,0.0,WeatherDisplay:10.37,2013-02-17 15:39:00,
2013-02-17 06:44:00,23.0,21.0,29.62,ENE,66,11.5,11.5,92,0.00,-SN,,0.00,0.0,WeatherDisplay:10.37,2013-02-17 15:44:00,
2013-02-17 06:49:00,23.0,21.0,29.62,ENE,75,9.2,9.2,92,0.00,-SN,,0.00,0.0,WeatherDisplay:10.37,2013-02-17 15:49:00,
2013-02-17 06:54:00,23.1,21.1,29.62,ENE,61,9.2,9.2,92,0.00,-SN,,0.00,0.0,WeatherDisplay:10.37,2013-02-17 15:54:00,
2013-02-17 06:59:00,23.1,21.1,29.61,ENE,69,11.5,11.5,92,0.00,-SN,,0.00,0.0,WeatherDisplay:10.37,2013-02-17 15:59:00,
2013-02-17 07:04:00,23.2,21.2,29.61,ENE,60,13.8,13.8,92,0.00,-SN,,0.00,0.0,WeatherDisplay:10.37,2013-02-17 16:04:00,
2013-02-17 07:09:00,23.2,21.2,29.61,ENE,67,10.0,10.0,92,0.00,-SN,,0.00,0.0,WeatherDisplay:10.37,2013-02-17 16:09:00,
2013-02-17 07:14:00,23.3,21.3,29.61,ENE,74,16.1,16.1,92,0.00,-SN,,0.00,0.0,WeatherDisplay:10.37,2013-02-17 16:14:00,
2013-02-17 07:19:00,23.3,21.3,29.60,NE,43,9.2,9.2,92,0.00,-SN,,0.00,0.0,WeatherDisplay:10.37,2013-02-17 16:19:00,
2013-02-17 07:24:00,23.3,21.3,29.60,NE,34,11.5,11.5,92,0.00,-SN,,0.00,0.0,WeatherDisplay:10.37,2013-02-17 16:24:00,
2013-02-17 07:29:00,23.3,21.3,29.60,NNE,28,18.4,18.4,92,0.00,-SN,,0.00,0.0,WeatherDisplay:10.37,2013-02-17 16:29:00,
2013-02-17 07:34:00,23.4,21.4,29.60,ENE,61,11.5,11.5,92,0.00,-SN,,0.00,0.0,WeatherDisplay:10.37,2013-02-17 16:34:00,
2013-02-17 07:39:00,23.4,21.4,29.60,ENE,67,12.7,12.7,92,0.00,-SN,,0.00,0.0,WeatherDisplay:10.37,2013-02-17 16:39:00,
2013-02-17 07:44:00,23.4,21.4,29.60,NE,42,11.5,11.5,92,0.00,-SN,,0.00,0.0,WeatherDisplay:10.37,2013-02-17 16:44:00,
2013-02-17 07:49:00,23.4,21.4,29.60,ENE,57,6.9,6.9,92,0.00,-SN,,0.00,0.0,WeatherDisplay:10.37,2013-02-17 16:49:00,
2013-02-17 07:54:00,23.4,21.4,29.60,East,80,9.2,9.2,92,0.00,-SN,,0.00,0.0,WeatherDisplay:10.37,2013-02-17 16:54:00,
2013-02-17 07:59:00,23.4,21.4,29.60,East,80,11.5,11.5,92,0.00,-SN,,0.00,0.0,WeatherDisplay:10.37,2013-02-17 16:59:00,
2013-02-17 08:04:00,23.4,21.4,29.60,NNE,33,8.1,8.1,92,0.00,-SN,,0.00,0.0,WeatherDisplay:10.37,2013-02-17 17:04:00,
2013-02-17 08:09:00,23.4,21.4,29.59,East,89,6.9,6.9,92,0.00,-SN,,0.00,0.0,WeatherDisplay:10.37,2013-02-17 17:09:00,
2013-02-17 08:14:00,23.4,21.4,29.59,NE,46,15.0,15.0,92,0.00,-SN,,0.00,0.0,WeatherDisplay:10.37,2013-02-17 17:14:00,
2013-02-17 08:19:00,23.5,21.5,29.59,ENE,70,8.1,8.1,92,0.00,-SN,,0.00,0.0,WeatherDisplay:10.37,2013-02-17 17:19:00,
2013-02-17 08:24:00,23.4,21.4,29.59,NNE,22,10.4,10.4,92,0.00,-SN,,0.00,0.0,WeatherDisplay:10.37,2013-02-17 17:24:00,
2013-02-17 08:29:00,23.5,21.5,29.59,ENE,75,11.5,11.5,92,0.00,-SN,,0.00,0.0,WeatherDisplay:10.37,2013-02-17 17:29:00,
2013-02-17 08:34:00,23.5,21.5,29.59,East,91,10.4,10.4,92,0.00,-SN,,0.00,0.0,WeatherDisplay:10.37,2013-02-17 17:34:00,
2013-02-17 08:39:00,23.6,21.6,29.58,NE,52,10.4,10.4,92,0.00,-SN,,0.00,0.0,WeatherDisplay:10.37,2013-02-17 17:39:00,
2013-02-17 08:44:00,23.6,21.6,29.59,ESE,103,9.2,9.2,92,0.00,-SN,,0.00,0.0,WeatherDisplay:10.37,2013-02-17 17:44:00,
2013-02-17 08:49:00,23.7,21.7,29.59,NNE,12,8.1,8.1,92,0.00,-SN,,0.00,0.0,WeatherDisplay:10.37,2013-02-17 17:49:00,
2013-02-17 08:54:00,23.7,21.7,29.59,NE,49,11.5,11.5,92,0.00,-SN,,0.00,0.0,WeatherDisplay:10.37,2013-02-17 17:54:00,
2013-02-17 08:59:00,23.8,21.8,29.58,ENE,71,10.4,10.4,92,0.00,-SN,,0.00,5.0,WeatherDisplay:10.37,2013-02-17 17:59:00,
2013-02-17 09:04:00,23.8,21.8,29.58,ENE,59,15.0,15.0,92,0.00,-SN,,0.00,5.0,WeatherDisplay:10.37,2013-02-17 18:04:00,
2013-02-17 09:09:00,23.9,21.9,29.58,NE,44,9.2,9.2,92,0.00,-SN,,0.00,5.0,WeatherDisplay:10.37,2013-02-17 18:09:00,
2013-02-17 09:14:00,23.9,21.9,29.58,ENE,77,10.0,10.0,92,0.00,-SN,,0.00,7.0,WeatherDisplay:10.37,2013-02-17 18:14:00,
2013-02-17 09:19:00,24.0,22.0,29.58,ENE,68,9.2,9.2,92,0.00,-SN,,0.00,9.0,WeatherDisplay:10.37,2013-02-17 18:19:00,
2013-02-17 09:24:00,24.0,22.0,29.58,NNE,26,10.4,10.4,92,0.00,-SN,,0.00,11.0,WeatherDisplay:10.37,2013-02-17 18:24:00,
2013-02-17 09:29:00,24.1,22.1,29.58,ENE,65,11.0,11.0,92,0.00,-SN,,0.00,12.0,WeatherDisplay:10.37,2013-02-17 18:29:00,
2013-02-17 09:34:00,24.1,22.1,29.58,ENE,78,9.2,9.2,92,0.00,-SN,,0.00,12.0,WeatherDisplay:10.37,2013-02-17 18:34:00,
2013-02-17 09:39:00,24.1,22.1,29.58,ENE,69,7.0,7.0,92,0.00,-SN,,0.00,16.0,WeatherDisplay:10.37,2013-02-17 18:39:00,
2013-02-17 09:44:00,24.2,22.2,29.58,NE,46,11.0,11.0,92,0.00,-SN,,0.00,16.0,WeatherDisplay:10.37,2013-02-17 18:44:00,
2013-02-17 09:49:00,24.2,22.2,29.58,NE,40,10.4,10.4,92,0.00,-SN,,0.00,19.0,WeatherDisplay:10.37,2013-02-17 18:49:00,
2013-02-17 09:54:00,24.2,22.2,29.58,ENE,58,8.1,8.1,92,0.00,-SN,,0.00,21.0,WeatherDisplay:10.37,2013-02-17 18:54:00,
2013-02-17 09:59:00,24.3,22.3,29.58,NNE,33,11.5,11.5,92,0.00,-SN,,0.00,21.0,WeatherDisplay:10.37,2013-02-17 18:59:00,
2013-02-17 10:04:00,24.3,22.3,29.58,NE,43,6.9,6.9,92,0.00,-SN,,0.00,23.0,WeatherDisplay:10.37,2013-02-17 19:04:00,
2013-02-17 10:09:00,24.4,22.4,29.58,ENE,57,11.5,11.5,92,0.00,-SN,,0.00,23.0,WeatherDisplay:10.37,2013-02-17 19:09:00,
2013-02-17 10:14:00,24.4,22.4,29.58,North,10,5.8,5.8,92,0.00,-SN,,0.00,21.0,WeatherDisplay:10.37,2013-02-17 19:14:00,
2013-02-17 10:19:00,24.5,22.5,29.58,East,82,8.0,8.0,92,0.00,-SN,,0.00,21.0,WeatherDisplay:10.37,2013-02-17 19:19:00,
2013-02-17 10:24:00,24.5,22.5,29.58,ENE,58,8.1,8.1,92,0.00,-SN,,0.00,19.0,WeatherDisplay:10.37,2013-02-17 19:24:00,
2013-02-17 10:29:00,24.6,22.6,29.58,East,100,8.0,8.0,92,0.00,-SN,,0.00,19.0,WeatherDisplay:10.37,2013-02-17 19:29:00,
2013-02-17 10:34:00,24.7,22.7,29.58,NE,47,13.8,13.8,92,0.00,-SN,,0.00,23.0,WeatherDisplay:10.37,2013-02-17 19:34:00,
2013-02-17 10:39:00,24.7,22.7,29.58,ENE,63,8.1,8.1,92,0.00,-SN,,0.00,25.0,WeatherDisplay:10.37,2013-02-17 19:39:00,
2013-02-17 10:44:00,24.8,22.8,29.58,NNE,24,11.5,11.5,92,0.00,-SN,,0.00,30.0,WeatherDisplay:10.37,2013-02-17 19:44:00,
2013-02-17 10:49:00,24.8,22.8,29.58,East,82,9.2,9.2,92,0.00,-SN,,0.00,32.0,WeatherDisplay:10.37,2013-02-17 19:49:00,
2013-02-17 10:54:00,24.9,22.9,29.58,NE,47,6.9,6.9,92,0.00,-SN,,0.00,32.0,WeatherDisplay:10.37,2013-02-17 19:54:00,
2013-02-17 10:59:00,24.9,22.9,29.58,East,86,11.5,11.5,92,0.00,-SN,,0.00,30.0,WeatherDisplay:10.37,2013-02-17 19:59:00,
2013-02-17 11:04:00,25.0,23.0,29.58,ENE,65,8.0,8.0,92,0.00,-SN,,0.00,30.0,WeatherDisplay:10.37,2013-02-17 20:04:00,
2013-02-17 11:09:00,25.0,23.0,29.58,ENE,64,8.1,8.1,92,0.00,-SN,,0.00,32.0,WeatherDisplay:10.37,2013-02-17 20:09:00,
2013-02-17 11:14:00,25.0,23.0,29.59,NE,47,11.0,11.0,92,0.00,-SN,,0.00,35.0,WeatherDisplay:10.37,2013-02-17 20:14:00,
2013-02-17 11:19:00,25.1,23.1,29.58,NE,37,6.9,6.9,92,0.00,-SN,,0.00,39.0,WeatherDisplay:10.37,2013-02-17 20:19:00,
2013-02-17 11:24:00,25.1,23.1,29.59,ENE,65,11.5,11.5,92,0.00,-SN,,0.00,39.0,WeatherDisplay:10.37,2013-02-17 20:24:00,
2013-02-17 11:29:00,25.2,23.2,29.59,East,87,9.2,9.2,92,0.00,-SN,,0.00,40.0,WeatherDisplay:10.37,2013-02-17 20:29:00,
2013-02-17 11:34:00,25.2,23.2,29.59,NE,38,10.4,10.4,92,0.00,-SN,,0.00,39.0,WeatherDisplay:10.37,2013-02-17 20:34:00,
2013-02-17 11:39:00,25.3,23.3,29.58,NE,34,3.5,3.5,92,0.00,-SN,,0.00,37.0,WeatherDisplay:10.37,2013-02-17 20:39:00,
2013-02-17 11:44:00,25.4,23.4,29.58,ENE,64,9.2,9.2,92,0.00,-SN,,0.00,37.0,WeatherDisplay:10.37,2013-02-17 20:44:00,
2013-02-17 11:49:00,25.5,23.5,29.59,ENE,61,9.0,9.0,92,0.00,-SN,,0.00,39.0,WeatherDisplay:10.37,2013-02-17 20:49:00,
2013-02-17 11:54:00,25.6,23.6,29.59,East,86,6.0,6.0,92,0.00,-SN,,0.00,42.0,WeatherDisplay:10.37,2013-02-17 20:54:00,
2013-02-17 11:59:00,25.6,23.6,29.59,NE,49,9.2,9.2,92,0.00,-SN,,0.00,44.0,WeatherDisplay:10.37,2013-02-17 20:59:00,
2013-02-17 12:04:00,25.7,23.7,29.58,NE,49,6.9,6.9,92,0.00,-SN,,0.00,46.0,WeatherDisplay:10.37,2013-02-17 21:04:00,
2013-02-17 12:09:00,25.8,23.8,29.58,NE,40,9.2,9.2,92,0.00,-SN,,0.00,54.0,WeatherDisplay:10.37,2013-02-17 21:09:00,
2013-02-17 12:14:00,25.9,23.9,29.58,ENE,59,11.5,11.5,92,0.00,-SN,,0.00,56.0,WeatherDisplay:10.37,2013-02-17 21:14:00,
2013-02-17 12:19:00,26.0,24.0,29.58,ENE,61,5.8,5.8,92,0.00,-SN,,0.00,54.0,WeatherDisplay:10.37,2013-02-17 21:19:00,
2013-02-17 12:24:00,26.1,24.1,29.59,ENE,63,10.4,10.4,92,0.00,-SN,,0.00,56.0,WeatherDisplay:10.37,2013-02-17 21:24:00,
2013-02-17 12:29:00,26.3,24.3,29.59,NNE,28,4.6,4.6,92,0.00,-SN,,0.00,58.0,WeatherDisplay:10.37,2013-02-17 21:29:00,
2013-02-17 12:34:00,26.4,24.4,29.59,ENE,57,8.1,8.1,92,0.00,-SN,,0.00,54.0,WeatherDisplay:10.37,2013-02-17 21:34:00,
2013-02-17 12:39:00,26.5,24.5,29.59,NNE,30,6.0,6.0,92,0.00,-SN,,0.00,51.0,WeatherDisplay:10.37,2013-02-17 21:39:00,
2013-02-17 12:44:00,26.6,24.6,29.59,NE,54,7.0,7.0,92,0.00,-SN,,0.00,47.0,WeatherDisplay:10.37,2013-02-17 21:44:00,
2013-02-17 12:49:00,26.6,24.6,29.59,NE,45,7.0,7.0,92,0.00,-SN,,0.00,46.0,WeatherDisplay:10.37,2013-02-17 21:49:00,
2013-02-17 12:54:00,26.7,24.7,29.59,East,92,5.8,5.8,92,0.00,-SN,,0.00,44.0,WeatherDisplay:10.37,2013-02-17 21:54:00,
2013-02-17 12:59:00,26.7,24.7,29.59,ENE,57,4.0,4.0,92,0.00,-SN,,0.00,46.0,WeatherDisplay:10.37,2013-02-17 21:59:00,
2013-02-17 13:04:00,26.8,24.8,29.59,NE,52,6.0,6.0,92,0.00,-SN,,0.00,47.0,WeatherDisplay:10.37,2013-02-17 22:04:00,
2013-02-17 13:09:00,26.9,24.9,29.59,ENE,63,6.9,6.9,92,0.00,-SN,,0.00,47.0,WeatherDisplay:10.37,2013-02-17 22:09:00,
2013-02-17 13:14:00,26.9,24.9,29.59,NNE,32,5.8,5.8,92,0.00,-SN,,0.00,47.0,WeatherDisplay:10.37,2013-02-17 22:14:00,
2013-02-17 13:19:00,27.0,25.0,29.59,ESE,103,3.5,3.5,92,0.00,-SN,,0.00,49.0,WeatherDisplay:10.37,2013-02-17 22:19:00,
2013-02-17 13:24:00,27.1,25.1,29.59,NE,41,6.9,6.9,92,0.00,-SN,,0.00,49.0,WeatherDisplay:10.37,2013-02-17 22:24:00,
2013-02-17 13:29:00,27.1,25.1,29.59,ENE,77,8.1,8.1,92,0.00,-SN,,0.00,53.0,WeatherDisplay:10.37,2013-02-17 22:29:00,
2013-02-17 13:34:00,27.1,25.1,29.59,ENE,71,5.8,5.8,92,0.00,-SN,,0.00,51.0,WeatherDisplay:10.37,2013-02-17 22:34:00,
2013-02-17 13:39:00,27.2,25.2,29.59,NE,54,6.0,6.0,92,0.00,-SN,,0.00,47.0,WeatherDisplay:10.37,2013-02-17 22:39:00,
2013-02-17 13:44:00,27.3,25.3,29.59,ENE,59,10.4,10.4,92,0.00,-SN,,0.00,46.0,WeatherDisplay:10.37,2013-02-17 22:44:00,
2013-02-17 13:49:00,27.3,25.3,29.58,ENE,74,9.2,9.2,92,0.00,-SN,,0.00,49.0,WeatherDisplay:10.37,2013-02-17 22:49:00,
2013-02-17 13:54:00,27.3,25.3,29.58,NE,53,9.2,9.2,92,0.00,-SN,,0.00,51.0,WeatherDisplay:10.37,2013-02-17 22:54:00,
2013-02-17 13:59:00,27.4,25.4,29.59,NE,38,4.0,4.0,92,0.00,-SN,,0.00,51.0,WeatherDisplay:10.37,2013-02-17 22:59:00,
2013-02-17 14:04:00,27.5,25.5,29.59,NE,42,3.5,3.5,92,0.00,-SN,,0.00,47.0,WeatherDisplay:10.37,2013-02-17 23:04:00,
2013-02-17 14:09:00,27.6,25.6,29.59,NNE,25,8.1,8.1,92,0.00,-SN,,0.00,42.0,WeatherDisplay:10.37,2013-02-17 23:09:00,
2013-02-17 14:14:00,27.6,25.6,29.59,NE,46,3.5,3.5,92,0.00,-SN,,0.00,40.0,WeatherDisplay:10.37,2013-02-17 23:14:00,
2013-02-17 14:19:00,27.7,25.7,29.59,NE,38,5.0,5.0,92,0.00,-SN,,0.00,37.0,WeatherDisplay:10.37,2013-02-17 23:19:00,
2013-02-17 14:24:00,27.7,25.7,29.59,NE,49,5.8,5.8,92,0.00,-SN,,0.00,35.0,WeatherDisplay:10.37,2013-02-17 23:24:00,
2013-02-17 14:29:00,27.7,25.4,29.59,NNE,13,8.1,8.1,91,0.00,-SN,,0.00,37.0,WeatherDisplay:10.37,2013-02-17 23:29:00,
2013-02-17 14:34:00,27.7,25.7,29.59,NE,38,8.1,8.1,92,0.00,-SN,,0.00,40.0,WeatherDisplay:10.37,2013-02-17 23:34:00,
2013-02-17 14:39:00,27.7,25.7,29.59,ENE,67,4.6,4.6,92,0.00,-SN,,0.00,40.0,WeatherDisplay:10.37,2013-02-17 23:39:00,
2013-02-17 14:44:00,27.8,25.8,29.59,NE,53,5.0,5.0,92,0.00,-SN,,0.00,42.0,WeatherDisplay:10.37,2013-02-17 23:44:00,
2013-02-17 14:49:00,27.8,25.8,29.59,NNE,32,4.6,4.6,92,0.00,-SN,,0.00,40.0,WeatherDisplay:10.37,2013-02-17 23:49:00,
2013-02-17 14:54:00,27.9,25.9,29.59,NNE,30,4.6,4.6,92,0.00,-SN,,0.00,37.0,WeatherDisplay:10.37,2013-02-17 23:54:00,
2013-02-17 14:59:00,27.9,25.9,29.59,NNE,22,3.5,3.5,92,0.00,-SN,,0.00,33.0,WeatherDisplay:10.37,2013-02-17 23:59:00,
2013-02-17 15:04:00,27.9,25.9,29.58,NNE,32,3.5,3.5,92,0.00,-SN,,0.00,32.0,WeatherDisplay:10.37,2013-02-18 00:04:00,
2013-02-17 15:09:00,27.9,25.9,29.59,NNE,20,5.8,5.8,92,0.00,-SN,,0.00,32.0,WeatherDisplay:10.37,2013-02-18 00:09:00,
2013-02-17 15:14:00,27.9,25.9,29.59,North,11,2.3,2.3,92,0.00,-SN,,0.00,30.0,WeatherDisplay:10.37,2013-02-18 00:14:00,
2013-02-17 15:19:00,27.9,25.9,29.59,NE,52,4.6,4.6,92,0.00,-SN,,0.00,28.0,WeatherDisplay:10.37,2013-02-18 00:19:00,
2013-02-17 15:24:00,27.9,25.9,29.59,NE,38,3.5,3.5,92,0.00,-SN,,0.00,26.0,WeatherDisplay:10.37,2013-02-18 00:24:00,
2013-02-17 15:29:00,27.9,25.9,29.59,NNE,26,3.5,3.5,92,0.00,-SN,,0.00,28.0,WeatherDisplay:10.37,2013-02-18 00:29:00,
2013-02-17 15:35:00,28.0,26.0,29.59,NE,49,4.6,4.6,92,0.00,-SN,,0.00,30.0,WeatherDisplay:10.37,2013-02-18 00:35:00,
2013-02-17 15:40:00,28.0,26.0,29.59,NNE,30,3.5,3.5,92,0.00,-SN,,0.00,32.0,WeatherDisplay:10.37,2013-02-18 00:40:00,
2013-02-17 15:45:00,28.0,26.0,29.59,NNW,329,3.5,3.5,92,0.00,-SN,,0.00,32.0,WeatherDisplay:10.37,2013-02-18 00:45:00,
2013-02-17 15:50:00,28.0,26.2,29.59,NE,38,3.5,3.5,93,0.00,-SN,,0.00,30.0,WeatherDisplay:10.37,2013-02-18 00:50:00,
2013-02-17 15:55:00,28.1,26.1,29.60,ENE,69,5.8,5.8,92,0.00,-SN,,0.00,28.0,WeatherDisplay:10.37,2013-02-18 00:55:00,
2013-02-17 16:00:00,28.1,26.1,29.60,NNE,33,5.8,5.8,92,0.00,-SN,,0.00,28.0,WeatherDisplay:10.37,2013-02-18 01:00:00,
2013-02-17 16:05:00,28.1,26.1,29.60,NE,39,3.5,3.5,92,0.00,-SN,,0.00,28.0,WeatherDisplay:10.37,2013-02-18 01:05:00,
2013-02-17 16:10:00,28.2,26.4,29.60,ENE,70,4.0,4.0,93,0.00,-SN,,0.00,26.0,WeatherDisplay:10.37,2013-02-18 01:10:00,
2013-02-17 16:15:00,28.3,26.3,29.60,North,9,10.4,10.4,92,0.00,-SN,,0.00,25.0,WeatherDisplay:10.37,2013-02-18 01:15:00,
2013-02-17 16:20:00,28.2,26.2,29.60,NNE,30,6.9,6.9,92,0.00,-SN,,0.00,23.0,WeatherDisplay:10.37,2013-02-18 01:20:00,
2013-02-17 16:25:00,28.2,26.2,29.60,NE,49,6.9,6.9,92,0.00,-SN,,0.00,25.0,WeatherDisplay:10.37,2013-02-18 01:25:00,
2013-02-17 16:30:00,28.2,26.4,29.60,ENE,62,9.2,9.2,93,0.00,-SN,,0.00,26.0,WeatherDisplay:10.37,2013-02-18 01:30:00,
2013-02-17 16:35:00,28.2,26.4,29.60,NNE,16,6.9,6.9,93,0.00,-SN,,0.00,28.0,WeatherDisplay:10.37,2013-02-18 01:35:00,
2013-02-17 16:40:00,28.2,26.4,29.60,East,89,4.6,4.6,93,0.00,-SN,,0.00,28.0,WeatherDisplay:10.37,2013-02-18 01:40:00,
2013-02-17 16:45:00,28.2,26.4,29.60,NE,48,5.8,5.8,93,0.00,-SN,,0.00,30.0,WeatherDisplay:10.37,2013-02-18 01:45:00,
2013-02-17 16:50:00,28.3,26.5,29.60,NNE,27,6.9,6.9,93,0.00,-SN,,0.00,26.0,WeatherDisplay:10.37,2013-02-18 01:50:00,
2013-02-17 16:55:00,28.3,26.3,29.61,East,84,6.0,6.0,92,0.00,-SN,,0.00,25.0,WeatherDisplay:10.37,2013-02-18 01:55:00,
2013-02-17 17:00:00,28.3,26.5,29.61,NE,41,8.1,8.1,93,0.00,-SN,,0.00,21.0,WeatherDisplay:10.37,2013-02-18 02:00:00,
2013-02-17 17:05:00,28.3,26.5,29.61,NNE,17,9.0,9.0,93,0.00,-SN,,0.00,21.0,WeatherDisplay:10.37,2013-02-18 02:05:00,
2013-02-17 17:10:00,28.3,26.3,29.60,NNE,32,6.0,6.0,92,0.00,-SN,,0.00,19.0,WeatherDisplay:10.37,2013-02-18 02:10:00,
2013-02-17 17:15:00,28.2,26.2,29.61,NE,51,4.0,4.0,92,0.00,-SN,,0.00,16.0,WeatherDisplay:10.37,2013-02-18 02:15:00,
2013-02-17 17:20:00,28.2,26.2,29.61,East,82,3.5,3.5,92,0.00,-SN,,0.00,14.0,WeatherDisplay:10.37,2013-02-18 02:20:00,
2013-02-17 17:25:00,28.1,26.1,29.62,North,11,8.1,8.1,92,0.00,-SN,,0.00,11.0,WeatherDisplay:10.37,2013-02-18 02:25:00,
2013-02-17 17:30:00,28.1,26.1,29.62,NNE,28,3.5,3.5,92,0.00,-SN,,0.00,11.0,WeatherDisplay:10.37,2013-02-18 02:30:00,
2013-02-17 17:35:00,28.1,26.1,29.62,ENE,65,4.6,4.6,92,0.00,-SN,,0.00,9.0,WeatherDisplay:10.37,2013-02-18 02:35:00,
2013-02-17 17:40:00,28.0,26.0,29.62,NNE,12,5.8,5.8,92,0.00,-SN,,0.00,7.0,WeatherDisplay:10.37,2013-02-18 02:40:00,
2013-02-17 17:45:00,28.0,26.0,29.63,NNE,28,3.5,3.5,92,0.00,-SN,,0.00,5.0,WeatherDisplay:10.37,2013-02-18 02:45:00,
2013-02-17 17:50:00,27.9,25.9,29.63,NNE,31,5.8,5.8,92,0.00,-SN,,0.00,0.0,WeatherDisplay:10.37,2013-02-18 02:50:00,
2013-02-17 17:55:00,27.9,25.9,29.62,NE,52,4.6,4.6,92,0.00,-SN,,0.00,0.0,WeatherDisplay:10.37,2013-02-18 02:55:00,
2013-02-17 18:00:00,27.8,25.8,29.62,NNE,32,4.6,4.6,92,0.00,-SN,,0.00,0.0,WeatherDisplay:10.37,2013-02-18 03:00:00,
2013-02-17 18:05:00,27.8,25.8,29.63,NE,44,6.9,6.9,92,0.00,-SN,,0.00,0.0,WeatherDisplay:10.37,2013-02-18 03:05:00,
2013-02-17 18:10:00,27.7,25.7,29.63,NNE,18,3.5,3.5,92,0.00,-SN,,0.00,0.0,WeatherDisplay:10.37,2013-02-18 03:10:00,
2013-02-17 18:15:00,27.7,25.7,29.64,NE,47,3.5,3.5,92,0.00,-SN,,0.00,0.0,WeatherDisplay:10.37,2013-02-18 03:15:00,
2013-02-17 18:20:00,27.6,25.8,29.64,NE,44,4.6,4.6,93,0.00,-SN,,0.00,0.0,WeatherDisplay:10.37,2013-02-18 03:20:00,
2013-02-17 18:25:00,27.6,25.8,29.64,NNE,26,3.5,3.5,93,0.00,-SN,,0.00,0.0,WeatherDisplay:10.37,2013-02-18 03:25:00,
2013-02-17 18:30:00,27.6,25.8,29.64,NNE,26,2.3,2.3,93,0.00,-SN,,0.00,0.0,WeatherDisplay:10.37,2013-02-18 03:30:00,
2013-02-17 18:35:00,27.5,25.7,29.65,NNE,26,3.5,3.5,93,0.00,-SN,,0.00,0.0,WeatherDisplay:10.37,2013-02-18 03:35:00,
2013-02-17 18:40:00,27.5,25.7,29.65,NNE,26,2.3,2.3,93,0.00,-SN,,0.00,0.0,WeatherDisplay:10.37,2013-02-18 03:40:00,
2013-02-17 18:45:00,27.4,25.6,29.65,NNE,26,1.1,1.1,93,0.00,-SN,,0.00,0.0,WeatherDisplay:10.37,2013-02-18 03:45:00,
2013-02-17 18:50:00,27.4,25.6,29.65,NNE,26,1.1,1.1,93,0.00,-SN,,0.00,0.0,WeatherDisplay:10.37,2013-02-18 03:50:00,
2013-02-17 18:55:00,27.3,25.5,29.65,NNE,26,2.3,2.3,93,0.00,-SN,,0.00,0.0,WeatherDisplay:10.37,2013-02-18 03:55:00,
2013-02-17 19:00:00,27.2,25.4,29.65,NNE,26,1.1,1.1,93,0.00,-SN,,0.00,0.0,WeatherDisplay:10.37,2013-02-18 04:00:00,
2013-02-17 19:05:00,27.2,25.2,29.65,NNE,26,1.1,0.0,92,0.00,-SN,,0.00,0.0,WeatherDisplay:10.37,2013-02-18 04:05:00,
2013-02-17 19:10:00,27.1,25.1,29.65,NNE,26,1.1,1.1,92,0.00,-SN,,0.00,0.0,WeatherDisplay:10.37,2013-02-18 04:10:00,
2013-02-17 19:15:00,27.1,25.1,29.66,NNE,26,2.3,2.3,92,0.00,-SN,,0.00,0.0,WeatherDisplay:10.37,2013-02-18 04:15:00,
2013-02-17 19:20:00,27.0,24.7,29.66,NNE,23,1.1,1.1,91,0.00,-SN,,0.00,0.0,WeatherDisplay:10.37,2013-02-18 04:20:00,
2013-02-17 19:25:00,26.9,24.1,29.66,NNE,23,3.5,3.5,89,0.00,-SN,,0.00,0.0,WeatherDisplay:10.37,2013-02-18 04:25:00,
2013-02-17 19:30:00,26.8,23.7,29.65,NNE,23,2.3,2.3,88,0.00,-SN,,0.00,0.0,WeatherDisplay:10.37,2013-02-18 04:30:00,
2013-02-17 19:35:00,26.7,23.6,29.66,NNE,23,2.3,2.3,88,0.00,-SN,,0.00,0.0,WeatherDisplay:10.37,2013-02-18 04:35:00,
2013-02-17 19:40:00,26.6,23.5,29.66,NNE,23,2.3,2.3,88,0.00,-SN,,0.00,0.0,WeatherDisplay:10.37,2013-02-18 04:40:00,
2013-02-17 19:45:00,26.4,22.8,29.66,NNE,22,3.5,3.5,86,0.00,-SN,,0.00,0.0,WeatherDisplay:10.37,2013-02-18 04:45:00,
2013-02-17 19:50:00,26.3,21.8,29.66,NNW,340,3.5,3.5,83,0.00,-SN,,0.00,0.0,WeatherDisplay:10.37,2013-02-18 04:50:00,
2013-02-17 19:55:00,26.2,21.7,29.67,NNE,23,3.0,3.0,83,0.00,-SN,,0.00,0.0,WeatherDisplay:10.37,2013-02-18 04:55:00,
2013-02-17 20:00:00,26.1,21.1,29.67,NNE,17,4.6,4.6,81,0.00,-SN,,0.00,0.0,WeatherDisplay:10.37,2013-02-18 05:00:00,
2013-02-17 20:05:00,25.9,20.6,29.67,NNE,29,4.0,4.0,80,0.00,-SN,,0.00,0.0,WeatherDisplay:10.37,2013-02-18 05:05:00,
2013-02-17 20:10:00,25.7,21.0,29.68,North,5,3.5,3.5,82,0.00,-SN,,0.00,0.0,WeatherDisplay:10.37,2013-02-18 05:10:00,
2013-02-17 20:15:00,25.4,20.4,29.68,North,5,3.5,3.5,81,0.00,-SN,,0.00,0.0,WeatherDisplay:10.37,2013-02-18 05:15:00,
2013-02-17 20:20:00,25.2,19.9,29.68,NNE,14,3.5,3.5,80,0.00,-SN,,0.00,0.0,WeatherDisplay:10.37,2013-02-18 05:20:00,
2013-02-17 20:25:00,25.0,19.4,29.68,NNE,26,3.5,3.5,79,0.00,-SN,,0.00,0.0,WeatherDisplay:10.37,2013-02-18 05:25:00,
2013-02-17 20:30:00,24.8,19.5,29.68,NNE,20,3.5,3.5,80,0.00,-SN,,0.00,0.0,WeatherDisplay:10.37,2013-02-18 05:30:00,
2013-02-17 20:35:00,24.5,19.5,29.68,NNE,28,3.5,3.5,81,0.00,OVC,,0.00,0.0,WeatherDisplay:10.37,2013-02-18 05:35:00,
2013-02-17 20:40:00,24.4,19.7,29.69,NNE,16,2.3,2.3,82,0.00,OVC,,0.00,0.0,WeatherDisplay:10.37,2013-02-18 05:40:00,
2013-02-17 20:45:00,24.3,19.9,29.69,NNE,16,1.1,1.1,83,0.00,OVC,,0.00,0.0,WeatherDisplay:10.37,2013-02-18 05:45:00,
2013-02-17 20:50:00,24.0,19.6,29.69,NNE,17,1.1,1.1,83,0.00,OVC,,0.00,0.0,WeatherDisplay:10.37,2013-02-18 05:50:00,
2013-02-17 20:55:00,23.9,19.8,29.70,NNE,17,2.3,2.3,84,0.00,OVC,,0.00,0.0,WeatherDisplay:10.37,2013-02-18 05:55:00,
2013-02-17 21:00:00,23.7,19.6,29.69,NNW,339,2.3,2.3,84,0.00,OVC,,0.00,0.0,WeatherDisplay:10.37,2013-02-18 06:00:00,
2013-02-17 21:05:00,23.6,19.8,29.70,NNW,346,3.5,3.5,85,0.00,SCT,,0.00,0.0,WeatherDisplay:10.37,2013-02-18 06:05:00,
2013-02-17 21:10:00,23.4,19.6,29.70,NNW,346,1.1,1.1,85,0.00,SCT,,0.00,0.0,WeatherDisplay:10.37,2013-02-18 06:10:00,
2013-02-17 21:15:00,23.3,19.5,29.70,NNW,346,1.1,1.1,85,0.00,SCT,,0.00,0.0,WeatherDisplay:10.37,2013-02-18 06:15:00,
2013-02-17 21:20:00,23.1,19.3,29.70,NNW,346,2.3,2.3,85,0.00,SCT,,0.00,0.0,WeatherDisplay:10.37,2013-02-18 06:20:00,
2013-02-17 21:25:00,23.0,18.9,29.70,NNW,343,3.5,3.5,84,0.00,SCT,,0.00,0.0,WeatherDisplay:10.37,2013-02-18 06:25:00,
2013-02-17 21:30:00,23.0,18.9,29.71,NNW,334,3.5,3.5,84,0.00,SCT,,0.00,0.0,WeatherDisplay:10.37,2013-02-18 06:30:00,
2013-02-17 21:35:00,22.9,18.8,29.72,NNW,334,1.1,1.1,84,0.00,SCT,,0.00,0.0,WeatherDisplay:10.37,2013-02-18 06:35:00,
2013-02-17 21:40:00,22.6,18.8,29.72,NNW,334,2.3,2.3,85,0.00,SCT,,0.00,0.0,WeatherDisplay:10.37,2013-02-18 06:40:00,
2013-02-17 21:45:00,22.2,18.1,29.72,NNW,334,1.1,1.1,84,0.00,SCT,,0.00,0.0,WeatherDisplay:10.37,2013-02-18 06:45:00,
2013-02-17 21:50:00,22.0,17.9,29.72,NNW,334,1.1,0.0,84,0.00,SCT,,0.00,0.0,WeatherDisplay:10.37,2013-02-18 06:50:00,
2013-02-17 21:55:00,21.8,17.7,29.72,NNW,334,1.1,1.1,84,0.00,SCT,,0.00,0.0,WeatherDisplay:10.37,2013-02-18 06:55:00,
2013-02-17 22:00:00,21.4,17.6,29.72,NNW,334,1.1,1.1,85,0.00,SCT,,0.00,0.0,WeatherDisplay:10.37,2013-02-18 07:00:00,
2013-02-17 22:05:00,21.0,17.5,29.73,NNW,334,1.1,1.1,86,0.00,CLR,,0.00,0.0,WeatherDisplay:10.37,2013-02-18 07:05:00,
2013-02-17 22:10:00,20.8,17.3,29.73,NNW,334,1.1,1.1,86,0.00,CLR,,0.00,0.0,WeatherDisplay:10.37,2013-02-18 07:10:00,
2013-02-17 22:15:00,20.4,17.1,29.73,NNW,334,1.1,1.1,87,0.00,CLR,,0.00,0.0,WeatherDisplay:10.37,2013-02-18 07:15:00,
2013-02-17 22:20:00,20.0,16.8,29.73,NNW,334,1.1,1.1,87,0.00,CLR,,0.00,0.0,WeatherDisplay:10.37,2013-02-18 07:20:00,
2013-02-17 22:25:00,19.8,16.6,29.73,NNW,334,0.0,0.0,87,0.00,CLR,,0.00,0.0,WeatherDisplay:10.37,2013-02-18 07:25:00,
2013-02-17 22:30:00,19.5,16.3,29.74,NNE,22,3.5,3.5,87,0.00,CLR,,0.00,0.0,WeatherDisplay:10.37,2013-02-18 07:30:00,
2013-02-17 22:35:00,19.3,15.8,29.74,NNE,22,1.1,1.1,86,0.00,CLR,,0.00,0.0,WeatherDisplay:10.37,2013-02-18 07:35:00,
2013-02-17 22:40:00,19.5,15.7,29.75,NNE,22,1.1,1.1,85,0.00,CLR,,0.00,0.0,WeatherDisplay:10.37,2013-02-18 07:40:00,
2013-02-17 22:45:00,19.4,15.9,29.75,NNE,22,2.0,2.0,86,0.00,CLR,,0.00,0.0,WeatherDisplay:10.37,2013-02-18 07:45:00,
2013-02-17 22:50:00,19.3,15.3,29.75,NNE,19,2.3,2.3,84,0.00,CLR,,0.00,0.0,WeatherDisplay:10.37,2013-02-18 07:50:00,
2013-02-17 22:55:00,19.8,15.2,29.75,NNE,19,3.5,3.5,82,0.00,CLR,,0.00,0.0,WeatherDisplay:10.37,2013-02-18 07:55:00,
2013-02-17 23:00:00,20.2,15.6,29.75,NNE,19,3.5,3.5,82,0.00,CLR,,0.00,0.0,WeatherDisplay:10.37,2013-02-18 08:00:00,
2013-02-17 23:05:00,20.1,15.5,29.75,NNE,19,1.1,0.0,82,0.00,FEW,,0.00,0.0,WeatherDisplay:10.37,2013-02-18 08:05:00,
2013-02-17 23:10:00,19.7,15.4,29.76,NNE,19,0.0,0.0,83,0.00,FEW,,0.00,0.0,WeatherDisplay:10.37,2013-02-18 08:10:00,
2013-02-17 23:15:00,19.2,14.9,29.76,NNE,19,0.0,0.0,83,0.00,FEW,,0.00,0.0,WeatherDisplay:10.37,2013-02-18 08:15:00,
2013-02-17 23:20:00,18.6,14.6,29.77,NNE,19,1.1,1.1,84,0.00,FEW,,0.00,0.0,WeatherDisplay:10.37,2013-02-18 08:20:00,
2013-02-17 23:25:00,18.1,14.1,29.77,NNE,19,1.1,1.1,84,0.00,FEW,,0.00,0.0,WeatherDisplay:10.37,2013-02-18 08:25:00,
2013-02-17 23:30:00,17.7,14.0,29.77,NNE,25,2.3,2.3,85,0.00,FEW,,0.00,0.0,WeatherDisplay:10.37,2013-02-18 08:30:00,
2013-02-17 23:35:00,17.5,13.8,29.77,NNE,25,1.1,0.0,85,0.00,FEW,,0.00,0.0,WeatherDisplay:10.37,2013-02-18 08:35:00,
2013-02-17 23:40:00,17.2,13.5,29.77,NNE,25,0.0,0.0,85,0.00,FEW,,0.00,0.0,WeatherDisplay:10.37,2013-02-18 08:40:00,
2013-02-17 23:45:00,16.8,13.3,29.77,NNE,25,0.0,0.0,86,0.00,FEW,,0.00,0.0,WeatherDisplay:10.37,2013-02-18 08:45:00,
2013-02-17 23:50:00,16.3,12.8,29.78,NNE,25,1.1,1.1,86,0.00,FEW,,0.00,0.0,WeatherDisplay:10.37,2013-02-18 08:50:00,
2013-02-17 23:55:00,15.8,12.4,29.78,NNE,25,0.0,0.0,86,0.00,FEW,,0.00,0.0,WeatherDisplay:10.37,2013-02-18 08:55:00,